AE0NK Weather Reports


time (UTC)temp
C
wind
direction
speed
KPH
gust
KPH
rain 1hr
cm
rain 24hr
cm
rain mn
cm
humidity
%
barometer
mb
20260906155327 22 71 8.0 16.1 0.00 0.00 0.00 87 1020.7
20260906154825 22 116 1.6 11.3 0.00 0.00 0.00 88 1020.8
20260906154322 22 142 4.8 11.3 0.00 0.00 0.00 88 1020.8
20260906153818 22 94 3.2 11.3 0.00 0.00 0.00 89 1020.8
20260906153317 22 96 4.8 11.3 0.00 0.00 0.00 89 1020.7
20260906152813 21 139 0.0 8.0 0.00 0.00 0.00 90 1020.7
20260906152330 21 161 3.2 9.7 0.00 0.00 0.00 90 1020.6
20260906151828 21 146 1.6 9.7 0.00 0.00 0.00 90 1020.6
20260906151326 21 143 1.6 9.7 0.00 0.00 0.00 90 1020.7
20260906150822 21 150 3.2 11.3 0.00 0.00 0.00 90 1020.6
20260906150320 21 78 4.8 11.3 0.00 0.00 0.00 90 1020.6
20260906145815 21 171 3.2 14.5 0.00 0.00 0.00 90 1020.6
20260906145314 21 95 4.8 14.5 0.00 0.00 0.00 90 1020.6
20260906144812 21 86 3.2 9.7 0.00 0.00 0.00 90 1020.6
20260906144329 21 90 4.8 11.3 0.00 0.00 0.00 91 1020.6
20260906143827 21 136 1.6 11.3 0.00 0.00 0.00 91 1020.5
20260906143326 21 129 4.8 11.3 0.00 0.00 0.00 91 1020.5
20260906142822 21 80 4.8 14.5 0.00 0.00 0.00 91 1020.4
20260906142320 21 126 4.8 14.5 0.00 0.00 0.00 91 1020.3
20260906141820 21 63 4.8 9.7 0.00 0.00 0.00 91 1020.3
20260906141318 21 168 3.2 16.1 0.00 0.00 0.00 91 1020.3
20260906140813 21 145 1.6 16.1 0.00 0.00 0.00 91 1020.2
20260906140330 21 108 1.6 14.5 0.00 0.00 0.00 91 1020.2
20260906135826 21 117 4.8 12.9 0.00 0.00 0.00 91 1020.2
20260906135325 21 130 8.0 12.9 0.00 0.00 0.00 91 1020.2
20260906134825 21 84 6.4 14.5 0.00 0.00 0.00 91 1020.2
20260906134322 21 138 4.8 14.5 0.00 0.00 0.00 92 1020.2
20260906133821 21 125 4.8 9.7 0.00 0.00 0.00 92 1020.2
20260906133316 20 182 1.6 9.7 0.00 0.00 0.00 92 1020.2
20260906132814 20 135 1.6 6.4 0.00 0.00 0.00 93 1020.1
20260906132312 20 171 1.6 11.3 0.00 0.00 0.00 93 1020.1
20260906131811 20 153 1.6 11.3 0.00 0.00 0.00 93 1020.1
20260906131326 20 177 1.6 8.0 0.00 0.00 0.00 93 1020.1
20260906130822 20 136 1.6 6.4 0.00 0.00 0.00 93 1019.9
20260906130321 20 127 1.6 4.8 0.00 0.00 0.00 93 1019.8
20260906125816 20 202 0.0 3.2 0.00 0.00 0.00 93 1019.7
20260906125312 20 80 1.6 3.2 0.00 0.00 0.00 93 1019.6
20260906124830 20 192 1.6 3.2 0.00 0.00 0.00 93 1019.4
20260906124327 20 165 1.6 3.2 0.00 0.00 0.00 93 1019.4
20260906123825 20 138 0.0 6.4 0.00 0.00 0.00 93 1019.4
20260906123322 20 138 1.6 6.4 0.00 0.00 0.00 93 1019.5
20260906122820 20 126 1.6 6.4 0.00 0.00 0.00 93 1019.5
20260906122316 20 148 0.0 1.6 0.00 0.00 0.00 93 1019.4
20260906121813 20 188 0.0 3.2 0.00 0.00 0.00 93 1019.4
20260906121326 20 188 0.0 3.2 0.00 0.00 0.00 93 1019.4
20260906120824 20 136 0.0 3.2 0.00 0.00 0.00 93 1019.3
20260906120319 20 136 0.0 3.2 0.00 0.00 0.00 93 1019.4
20260906115815 20 139 0.0 3.2 0.00 0.00 0.00 93 1019.5
20260906115330 20 139 0.0 3.2 0.00 0.00 0.00 93 1019.4
20260906114829 20 130 0.0 0.0 0.00 0.00 0.00 93 1019.2
20260906114325 20 130 0.0 0.0 0.00 0.00 0.00 93 1019.1
20260906113822 20 130 0.0 0.0 0.00 0.00 0.00 93 1019.2
20260906113320 20 130 0.0 0.0 0.00 0.00 0.00 93 1019.2
20260906112817 20 130 0.0 0.0 0.00 0.00 0.00 93 1019.3
20260906112314 20 130 0.0 0.0 0.00 0.00 0.00 93 1019.3
20260906111813 20 130 0.0 0.0 0.00 0.00 0.00 93 1019.2
20260906111330 20 130 0.0 0.0 0.00 0.00 0.00 93 1019.1
20260906110828 20 130 0.0 0.0 0.00 0.00 0.00 93 1019.0
20260906110324 20 130 0.0 0.0 0.00 0.00 0.00 93 1018.9
20260906105818 20 130 0.0 0.0 0.00 0.00 0.00 93 1018.8
20260906105316 20 130 0.0 0.0 0.00 0.00 0.00 93 1018.8
20260906104814 20 130 0.0 0.0 0.00 0.00 0.00 93 1018.7
20260906104330 20 130 0.0 0.0 0.00 0.00 0.00 93 1018.8
20260906103827 21 130 0.0 0.0 0.00 0.00 0.00 93 1018.8
20260906103324 21 130 0.0 0.0 0.00 0.00 0.00 93 1018.8
20260906102820 21 130 0.0 0.0 0.00 0.00 0.00 93 1018.7
20260906102318 21 130 0.0 0.0 0.00 0.00 0.00 93 1018.6
20260906101815 21 130 0.0 3.2 0.00 0.00 0.00 92 1018.5
20260906101311 21 130 0.0 3.2 0.00 0.00 0.00 92 1018.5
20260906100828 21 130 0.0 6.4 0.00 0.00 0.00 92 1018.4
20260906100324 21 130 1.6 6.4 0.00 0.00 0.00 92 1018.4
20260906095818 21 109 0.0 3.2 0.00 0.00 0.00 92 1018.2
20260906095316 21 175 0.0 1.6 0.00 0.00 0.00 92 1018.2
20260906094814 21 175 0.0 3.2 0.00 0.00 0.00 92 1018.0
20260906094311 21 175 1.6 3.2 0.00 0.00 0.00 92 1018.0
20260906093828 21 162 0.0 8.0 0.00 0.00 0.00 92 1017.8
20260906093326 21 162 0.0 8.0 0.00 0.00 0.00 92 1017.8
20260906092824 21 146 0.0 9.7 0.00 0.00 0.00 92 1017.8
20260906092321 21 146 3.2 9.7 0.00 0.00 0.00 92 1017.6
20260906091838 21 133 0.0 6.4 0.00 0.00 0.00 92 1017.6
20260906091329 21 169 1.6 6.4 0.00 0.00 0.00 92 1017.5
20260906090827 21 65 1.6 6.4 0.00 0.00 0.00 92 1017.5
20260906090325 21 90 1.6 3.2 0.00 0.00 0.00 91 1017.7
20260906085820 21 112 1.6 3.2 0.00 0.00 0.00 91 1017.6
20260906085318 21 177 0.0 6.4 0.00 0.00 0.00 91 1017.6
20260906084816 21 177 1.6 6.4 0.00 0.00 0.00 91 1017.7
20260906084312 21 174 1.6 8.0 0.00 0.00 0.00 91 1017.8
20260906083830 21 134 0.0 8.0 0.00 0.00 0.00 91 1017.9
20260906083326 22 89 1.6 6.4 0.00 0.00 0.00 91 1017.9
20260906082825 22 105 0.0 8.0 0.00 0.00 0.00 91 1017.8
20260906082323 22 126 1.6 6.4 0.00 0.00 0.00 91 1017.9
20260906081820 22 159 0.0 6.4 0.00 0.00 0.00 91 1017.7
20260906081318 22 175 0.0 6.4 0.00 0.00 0.00 91 1017.9
20260906080815 22 175 0.0 9.7 0.00 0.00 0.00 91 1017.8
20260906080313 22 182 0.0 9.7 0.00 0.00 0.00 91 1017.7
20260906075828 22 162 0.0 8.0 0.00 0.00 0.00 91 1017.7
20260906075326 22 135 1.6 8.0 0.00 0.00 0.00 91 1017.9
20260906074824 22 125 1.6 6.4 0.00 0.00 0.00 91 1017.9
20260906074322 22 106 0.0 3.2 0.00 0.00 0.00 90 1017.9
20260906073820 22 124 1.6 3.2 0.00 0.00 0.00 90 1018.0
20260906073318 22 118 1.6 6.4 0.00 0.00 0.00 90 1017.9
20260906072814 22 207 0.0 6.4 0.00 0.00 0.00 90 1018.0
20260906072311 22 177 1.6 6.4 0.00 0.00 0.00 90 1018.0
20260906071829 22 148 0.0 6.4 0.00 0.00 0.00 90 1018.1
20260906071327 22 71 0.0 6.4 0.00 0.00 0.00 90 1018.1
20260906070823 22 198 1.6 4.8 0.00 0.00 0.00 90 1018.0
20260906070320 22 134 1.6 3.2 0.00 0.00 0.00 90 1018.1
20260906065814 22 134 0.0 1.6 0.00 0.00 0.00 90 1018.3
20260906065312 22 134 0.0 1.6 0.00 0.00 0.00 90 1018.3
20260906064829 22 134 1.6 1.6 0.00 0.00 0.00 90 1018.2
20260906064326 22 102 0.0 0.0 0.00 0.00 0.00 90 1018.3
20260906063823 22 96 0.0 1.6 0.00 0.00 0.00 90 1018.3
20260906063320 22 96 0.0 6.4 0.00 0.00 0.00 90 1018.2
20260906062816 22 86 1.6 6.4 0.00 0.00 0.00 90 1018.2
20260906062313 22 143 0.0 3.2 0.00 0.00 0.00 90 1018.2
20260906061830 22 143 1.6 3.2 0.00 0.00 0.00 90 1018.2
20260906061325 22 143 1.6 3.2 0.00 0.00 0.00 90 1018.3
20260906060822 22 143 0.0 0.0 0.00 0.00 0.00 90 1018.2
20260906060320 22 143 0.0 0.0 0.00 0.00 0.00 90 1018.2
20260906055815 23 143 0.0 0.0 0.00 0.00 0.00 90 1018.2
20260906055312 23 143 0.0 1.6 0.00 0.00 0.00 89 1018.1
20260906054830 23 143 0.0 1.6 0.00 0.00 0.00 89 1018.2
20260906054326 23 181 0.0 3.2 0.00 0.00 0.00 90 1018.3
20260906053824 23 181 0.0 3.2 0.00 0.00 0.00 89 1018.2
20260906053322 23 114 0.0 3.2 0.00 0.00 0.00 89 1018.0
20260906052821 23 113 1.6 3.2 0.00 0.00 0.00 89 1017.9
20260906052318 23 173 0.0 3.2 0.00 0.00 0.00 89 1017.9
20260906051815 23 173 1.6 3.2 0.00 0.00 0.00 89 1018.0
20260906051313 23 150 0.0 1.6 0.00 0.00 0.00 89 1018.0
20260906050826 23 150 0.0 1.6 0.00 0.00 0.00 89 1017.9
20260906050325 23 214 0.0 0.0 0.00 0.00 0.00 89 1017.9
20260906045811 23 214 0.0 0.0 0.00 0.00 0.00 89 1017.7
20260906045328 23 214 0.0 1.6 0.00 0.00 0.00 89 1017.6
20260906044824 23 214 0.0 1.6 0.00 0.00 0.00 88 1017.5
20260906044321 23 214 0.0 1.6 0.00 0.00 0.00 88 1017.5
20260906043818 23 214 0.0 0.0 0.00 0.00 0.00 88 1017.4
20260906043316 23 214 0.0 0.0 0.00 0.00 0.00 88 1017.6
20260906042813 23 214 0.0 0.0 0.00 0.00 0.00 88 1017.5
20260906042329 23 214 0.0 0.0 0.00 0.00 0.00 88 1017.6
20260906041826 23 214 0.0 0.0 0.00 0.00 0.00 88 1017.6
20260906041324 23 214 0.0 0.0 0.00 0.00 0.00 88 1017.7
20260906040820 23 214 0.0 0.0 0.00 0.00 0.00 88 1017.6
20260906040314 23 214 0.0 0.0 0.00 0.00 0.00 88 1017.6
20260906035830 23 214 0.0 0.0 0.00 0.00 0.00 88 1017.6
20260906035327 23 214 0.0 0.0 0.00 0.00 0.00 88 1017.6
20260906034825 23 214 0.0 0.0 0.00 0.00 0.00 87 1017.6
20260906034323 23 214 0.0 0.0 0.00 0.00 0.00 87 1017.6
20260906033820 23 214 0.0 0.0 0.00 0.00 0.00 86 1017.3
20260906033318 23 214 0.0 0.0 0.00 0.00 0.00 86 1017.3
20260906032814 23 214 0.0 0.0 0.00 0.00 0.00 86 1017.2
20260906032330 24 214 0.0 1.6 0.00 0.00 0.00 87 1017.2
20260906031828 24 214 0.0 3.2 0.00 0.00 0.00 86 1017.2
20260906031325 24 214 0.0 3.2 0.00 0.00 0.00 87 1017.2
20260906030824 24 150 0.0 3.2 0.00 0.00 0.00 86 1017.0
20260906030321 24 150 0.0 3.2 0.00 0.00 0.00 86 1017.2
20260906025816 24 105 0.0 0.0 0.00 0.00 0.00 86 1017.1
20260906025314 24 105 0.0 1.6 0.00 0.00 0.00 86 1017.1
20260906024829 24 105 0.0 1.6 0.00 0.00 0.00 86 1017.0
20260906024327 24 122 0.0 1.6 0.00 0.00 0.00 86 1016.9
20260906023825 24 100 0.0 3.2 0.00 0.00 0.00 86 1016.9
20260906023321 24 141 0.0 3.2 0.00 0.00 0.00 85 1016.9
20260906022820 24 138 0.0 8.0 0.00 0.00 0.00 85 1016.9
20260906022317 25 135 1.6 8.0 0.00 0.00 0.00 85 1016.7
20260906021814 25 150 1.6 3.2 0.00 0.00 0.00 85 1016.7
20260906021313 25 149 0.0 6.4 0.00 0.00 0.00 85 1016.8
20260906020829 25 142 1.6 6.4 0.00 0.00 0.00 85 1016.6
20260906020327 25 107 1.6 3.2 0.00 0.00 0.00 84 1016.6
20260906015822 25 103 0.0 8.0 0.00 0.00 0.00 84 1016.4
20260906015318 25 131 0.0 6.4 0.00 0.00 0.00 84 1016.2
20260906014816 25 115 1.6 8.0 0.00 0.00 0.00 84 1016.1
20260906014314 25 150 1.6 8.0 0.00 0.00 0.00 84 1016.1
20260906013812 25 151 1.6 3.2 0.00 0.00 0.00 84 1016.0
20260906013330 25 122 0.0 1.6 0.00 0.00 0.00 84 1016.0
20260906012824 25 122 0.0 0.0 0.00 0.00 0.00 84 1015.9
20260906012323 26 122 0.0 0.0 0.00 0.00 0.00 83 1015.9
20260906011819 26 122 0.0 0.0 0.00 0.00 0.00 83 1015.9
20260906011315 26 122 0.0 0.0 0.00 0.00 0.00 82 1015.9
20260906010813 26 122 0.0 0.0 0.00 0.00 0.00 82 1015.9
20260906010311 26 122 0.0 0.0 0.00 0.00 0.00 82 1015.9
20260906005827 26 122 0.0 0.0 0.00 0.00 0.00 81 1016.0
20260906005325 26 122 0.0 3.2 0.00 0.00 0.00 81 1015.8
20260906004824 26 122 0.0 3.2 0.00 0.00 0.00 81 1015.7
20260906004322 26 140 0.0 1.6 0.00 0.00 0.00 81 1015.6
20260906003819 26 209 0.0 3.2 0.00 0.00 0.00 80 1015.6
20260906003317 26 209 0.0 3.2 0.00 0.00 0.00 80 1015.6
20260906002816 26 209 0.0 1.6 0.00 0.00 0.00 80 1015.5
20260906002312 26 209 0.0 3.2 0.00 0.00 0.00 80 1015.6
20260906001831 27 209 0.0 3.2 0.00 0.00 0.00 80 1015.6
20260906001328 27 143 1.6 3.2 0.00 0.00 0.00 79 1015.6
20260906000827 27 149 1.6 8.0 0.00 0.00 0.00 79 1015.6
20260906000326 27 154 1.6 8.0 0.00 0.00 0.00 79 1015.6
20260905235820 27 99 1.6 3.2 0.00 0.00 0.00 80 1015.5
20260905235319 27 189 0.0 3.2 0.00 0.00 0.00 80 1015.6
20260905234817 28 189 0.0 8.0 0.00 0.00 0.00 79 1015.5
20260905234315 28 238 3.2 8.0 0.00 0.00 0.00 79 1015.5
20260905233814 28 156 1.6 6.4 0.00 0.00 0.00 79 1015.5
20260905233330 28 243 1.6 12.9 0.00 0.00 0.00 79 1015.5
20260905232829 28 221 1.6 12.9 0.00 0.00 0.00 79 1015.5
20260905232326 29 159 1.6 8.0 0.00 0.00 0.00 78 1015.3
20260905231824 29 315 1.6 12.9 0.00 0.00 0.00 78 1015.4
20260905231320 30 167 3.2 12.9 0.00 0.00 0.00 77 1015.2
20260905230818 30 184 3.2 8.0 0.00 0.00 0.00 76 1015.2
20260905230317 30 115 0.0 8.0 0.00 0.00 0.00 77 1015.1
20260905225812 30 144 1.6 9.7 0.00 0.00 0.00 76 1015.1
20260905225329 30 180 3.2 9.7 0.00 0.00 0.00 75 1015.1
20260905224827 31 71 1.6 8.0 0.00 0.00 0.00 75 1015.1
20260905224325 31 99 1.6 8.0 0.00 0.00 0.00 75 1014.9
20260905223821 31 195 1.6 3.2 0.00 0.00 0.00 74 1014.9
20260905223318 31 329 0.0 11.3 0.00 0.00 0.00 75 1014.7
20260905222814 31 214 1.6 8.0 0.00 0.00 0.00 74 1014.8
20260905222312 31 116 1.6 8.0 0.00 0.00 0.00 73 1014.7
20260905221831 31 252 0.0 6.4 0.00 0.00 0.00 72 1014.6
20260905221327 31 187 1.6 6.4 0.00 0.00 0.00 72 1014.7
20260905220826 31 126 1.6 8.0 0.00 0.00 0.00 71 1014.7
20260905220323 31 139 1.6 8.0 0.00 0.00 0.00 71 1014.7
20260905215816 31 142 0.0 3.2 0.00 0.00 0.00 71 1014.8
20260905215315 31 115 0.0 6.4 0.00 0.00 0.00 70 1014.8
20260905214812 32 307 0.0 3.2 0.00 0.00 0.00 72 1014.9
20260905214310 32 329 1.6 3.2 0.00 0.00 0.00 72 1014.9
20260905213825 32 242 0.0 3.2 0.00 0.00 0.00 71 1014.8
20260905213323 32 74 0.0 1.6 0.00 0.00 0.00 71 1014.9
20260905212820 32 74 0.0 6.4 0.00 0.00 0.00 70 1014.9
20260905212318 32 317 1.6 6.4 0.00 0.00 0.00 69 1014.9
20260905211817 32 45 1.6 6.4 0.00 0.00 0.00 71 1014.9
20260905211314 32 182 1.6 6.4 0.00 0.00 0.00 72 1014.8
20260905210811 32 5 0.0 3.2 0.00 0.00 0.00 72 1014.9
20260905210310 32 340 1.6 9.7 0.00 0.00 0.00 71 1014.9
20260905205824 32 288 3.2 9.7 0.00 0.00 0.00 70 1014.9
20260905205322 32 333 1.6 6.4 0.00 0.00 0.00 71 1014.9
20260905204818 32 220 0.0 3.2 0.00 0.00 0.00 71 1015.0
20260905204314 32 220 1.6 6.4 0.00 0.00 0.00 69 1015.0
20260905203813 32 302 3.2 6.4 0.00 0.00 0.00 70 1015.1
20260905203311 32 298 1.6 8.0 0.00 0.00 0.00 72 1015.1
20260905202829 32 281 4.8 8.0 0.00 0.00 0.00 70 1015.0
20260905202327 32 329 1.6 8.0 0.00 0.00 0.00 71 1015.1
20260905201826 32 348 3.2 8.0 0.00 0.00 0.00 71 1015.1
20260905201322 32 117 0.0 9.7 0.00 0.00 0.00 73 1015.1
20260905200821 32 319 4.8 9.7 0.00 0.00 0.00 72 1015.1
20260905200319 31 24 1.6 8.0 0.00 0.00 0.00 73 1015.2
20260905195815 32 298 1.6 3.2 0.00 0.00 0.00 72 1015.3
20260905195311 32 13 0.0 9.7 0.00 0.00 0.00 73 1015.4
20260905194828 32 298 4.8 9.7 0.00 0.00 0.00 69 1015.5
20260905194325 32 278 1.6 6.4 0.00 0.00 0.00 71 1015.6
20260905193823 32 302 1.6 3.2 0.00 0.00 0.00 72 1015.6
20260905193320 32 160 0.0 3.2 0.00 0.00 0.00 72 1015.6
20260905192818 32 327 1.6 6.4 0.00 0.00 0.00 71 1015.6
20260905192314 32 115 1.6 6.4 0.00 0.00 0.00 72 1015.6
20260905191811 31 183 0.0 6.4 0.00 0.00 0.00 77 1015.8
20260905191329 31 92 1.6 6.4 0.00 0.00 0.00 74 1015.5
20260905190827 31 144 0.0 3.2 0.00 0.00 0.00 72 1015.6
20260905190325 31 245 0.0 8.0 0.00 0.00 0.00 74 1015.7
20260905185820 31 290 0.0 8.0 0.00 0.00 0.00 76 1015.9
20260905185316 31 290 1.6 6.4 0.00 0.00 0.00 73 1016.0
20260905184814 31 122 1.6 6.4 0.00 0.00 0.00 74 1016.1
20260905184313 31 176 1.6 3.2 0.00 0.00 0.00 75 1016.2
20260905183810 30 176 0.0 1.6 0.00 0.00 0.00 78 1016.1
20260905183326 30 176 0.0 6.4 0.00 0.00 0.00 77 1016.1
20260905182822 30 136 0.0 6.4 0.00 0.00 0.00 74 1016.0
20260905182318 30 105 0.0 6.4 0.00 0.00 0.00 78 1016.2
20260905181817 30 160 0.0 3.2 0.00 0.00 0.00 79 1016.1
20260905181317 30 160 0.0 3.2 0.00 0.00 0.00 78 1016.1
20260905180813 30 160 0.0 3.2 0.00 0.00 0.00 76 1016.1
20260905180310 30 146 1.6 6.4 0.00 0.00 0.00 75 1016.0
20260905175824 31 73 1.6 6.4 0.00 0.00 0.00 74 1016.1
20260905175320 30 202 1.6 6.4 0.00 0.00 0.00 75 1016.1
20260905174819 30 224 1.6 6.4 0.00 0.00 0.00 76 1016.0
20260905174317 31 222 1.6 6.4 0.00 0.00 0.00 77 1016.0
20260905173813 31 135 1.6 9.7 0.00 0.00 0.00 75 1016.0
20260905173313 30 5 1.6 9.7 0.00 0.00 0.00 78 1016.1
20260905172810 30 170 0.0 8.0 0.00 0.00 0.00 77 1016.1
20260905172327 31 124 1.6 8.0 0.00 0.00 0.00 75 1016.2
20260905171825 30 149 1.6 6.4 0.00 0.00 0.00 77 1016.1
20260905171321 30 173 3.2 6.4 0.00 0.00 0.00 76 1016.3
20260905170818 30 252 1.6 6.4 0.00 0.00 0.00 77 1016.3
20260905170314 30 142 1.6 6.4 0.00 0.00 0.00 77 1016.3
20260905165830 30 200 0.0 6.4 0.00 0.00 0.00 79 1016.3
20260905165326 30 120 1.6 6.4 0.00 0.00 0.00 78 1016.4
20260905164824 30 165 1.6 6.4 0.00 0.00 0.00 78 1016.4
20260905164322 30 146 1.6 3.2 0.00 0.00 0.00 80 1016.5
20260905163821 30 261 1.6 3.2 0.00 0.00 0.00 79 1016.5
20260905163318 30 92 0.0 6.4 0.00 0.00 0.00 80 1016.5
20260905162816 30 325 1.6 4.8 0.00 0.00 0.00 78 1016.5
20260905162314 30 173 1.6 6.4 0.00 0.00 0.00 79 1016.6
20260905161811 30 290 0.0 6.4 0.00 0.00 0.00 80 1016.5
20260905161326 30 258 1.6 4.8 0.00 0.00 0.00 78 1016.5
20260905160824 30 50 1.6 4.8 0.00 0.00 0.00 79 1016.5
20260905160320 30 149 1.6 6.4 0.00 0.00 0.00 80 1016.4
20260905155814 30 154 1.6 3.2 0.00 0.00 0.00 80 1016.4